User: anonymous   Login
Location: Haliburton Scout Reserve
(45.0900°N, 78.3200°W)
Time: 21:39:15
(UTC-05:00)
Language:

SPROUT - Orbit

View from above orbital plane
View from above orbital plane
View from above satellite
View from above satellite

Ground track
Ground track

The orbit data is extracted from the following two-line orbital elements,

1 39770U 14029E   24057.84256655  .00074622  00000-0  32322-2 0  9996
2 39770  98.0045 201.2721 0004675 220.7132 139.3754 15.22085188530592
Epoch (UTC): 26 February 2024 20:13:17
Eccentricity: 0.0004675
inclination: 98.0045°
perigee height: 496 km
apogee height: 503 km
right ascension of ascending node: 201.2721°
argument of perigee: 220.7132°
revolutions per day: 15.22085188
mean anomaly at epoch: 139.3754°
orbit number at epoch: 53059

The dashed part of the orbit path shows where the satellite is in the earth's shadow,  

DLR